This demonstration page uses our WeatherBlox Daily Observations layout. Learn more.

Left ArrowRight Arrow

47.50024, -111.30081

Hourly Observations for November 3, 2015

Temp ( °F °C ) Dew Point ( °F °C ) Humidity (%) Winds ( mph kmh ) Pressure ( in mb ) Visibility ( mi km ) Precip ( " mm )
12:53 am 00:53 Cloudy 36 2.2 27 -2.8 70 70 W 5 7 29.81 1009 10 16 0.00 0.00
1:53 am 01:53 Mostly Cloudy 35 1.7 27 -2.8 72 72 Calm 29.80 1009 10 16 0.00 0.00
2:53 am 02:53 Cloudy 34 1.1 29 -1.7 82 82 W 5 7 29.80 1009 10 16 0.00 0.00
3:53 am 03:53 Cloudy 34 1.1 29 -1.7 82 82 W 7 11 29.81 1010 10 16 0.00 0.00
4:53 am 04:53 Cloudy 35 1.7 28 -2.2 76 76 W 3 6 29.82 1010 10 16 0.00 0.00
5:53 am 05:53 Cloudy 33 0.6 28 -2.2 82 82 NW 3 6 29.84 1011 10 16 0.00 0.00
6:53 am 06:53 Partly Cloudy 31 -0.6 27 -2.8 85 85 NNW 5 7 29.86 1011 10 16 0.00 0.00
7:53 am 07:53 Cloudy 32 0 28 -2.2 85 85 NNW 5 7 29.87 1011 10 16 0.00 0.00
8:53 am 08:53 Cloudy 34 1.1 29 -1.7 82 82 NNW 6 9 29.86 1011 8 13 0.00 0.00
9:32 am 09:32 Cloudy with Light Snow 34 1 30 -1 87 87 N 6 9 29.85 1011 2 3 0.00 0.00
9:53 am 09:53 Cloudy with Light Snow 34 1.1 32 0 92 92 NW 3 6 29.85 1011 2 2 0.02 0.51
10:09 am 10:09 Cloudy with Light Rain 35 1.7 33 0.6 93 93 NW 7 11 29.85 1011 3 5 0.00 0.03
10:21 am 10:21 Cloudy with Light Rain 36 2.2 34 1.1 93 93 NNW 6 9 29.85 1011 3 5 0.00 0.03
10:33 am 10:33 Cloudy with Light Rain 35 1.7 33 0.6 93 93 NNW 7 11 29.85 1011 5 8 0.00 0.03
10:53 am 10:53 Cloudy with Light Rain 35 1.7 33 0.6 93 93 NW 7 11 29.85 1011 4 6 0.00 0.03
11:40 am 11:40 Cloudy with Light Rain 36 2 34 1 93 93 WNW 9 15 29.80 1009 4 6 0.00 0.00
11:53 am 11:53 Cloudy with Light Rain 36 2.2 34 1.1 93 93 WNW 12 19 29.83 1010 3 5 0.02 0.51
12:01 pm 12:01 Cloudy with Light Rain 36 2.2 34 1.1 93 93 NW 8 13 29.80 1009 2 3 0.01 0.25
12:17 pm 12:17 Cloudy with Light Rain 37 2.8 36 2.2 96 96 WNW 6 9 29.80 1009 2 3 0.02 0.51
12:36 pm 12:36 Cloudy with Light Rain 38 3.3 36 2.2 93 93 E 6 9 29.80 1009 6 10 0.03 0.76
12:53 pm 12:53 Cloudy with Light Rain 38 3.3 36 2.2 93 93 E 8 13 29.82 1010 9 14 0.03 0.76
1:53 pm 13:53 Cloudy with Light Rain 38 3.3 36 2.2 93 93 E 7 11 29.81 1010 5 8 0.01 0.25
2:12 pm 14:12 Cloudy with Light Rain 37 3 36 2 93 93 NE 12 19 29.80 1009 10 16 0.00 0.00
2:33 pm 14:33 Cloudy with Light Rain 38 3.3 35 1.7 89 89 NNE 14 22 29.80 1009 10 16 0.01 0.25
2:53 pm 14:53 Cloudy with Light Rain 37 2.8 36 2.2 96 96 NE 10 17 29.82 1010 10 16 0.02 0.51
3:45 pm 15:45 Cloudy with Light Rain 36 2.2 34 1.1 93 93 ENE 13 20 29.80 1009 9 14 0.03 0.76
3:53 pm 15:53 Cloudy with Light Rain 36 2.2 34 1.1 93 93 ENE 12 19 29.85 1011 10 16 0.03 0.76
4:53 pm 16:53 Cloudy with Light Rain 36 2.2 34 1.1 93 93 ENE 13 20 29.84 1011 9 14 0.02 0.51
5:53 pm 17:53 Cloudy with Light Rain 35 1.7 34 1.1 96 96 ENE 9 15 29.91 1013 7 11 0.03 0.76
6:17 pm 18:17 Cloudy with Light Rain 34 1.1 33 0.6 97 97 ENE 12 19 29.88 1012 6 10 0.03 0.76
6:26 pm 18:26 Cloudy with Light Snow 34 1 32 0 93 93 NE 10 17 29.88 1012 6 10 0.00 0.00
6:37 pm 18:37 Cloudy with Light Snow 34 1.1 32 0 92 92 NE 9 15 29.88 1012 5 8 0.05 1.27
6:53 pm 18:53 Cloudy with Light Snow 33 0.6 32 0 96 96 NE 8 13 29.93 1014 4 6 0.07 1.78
7:10 pm 19:10 Cloudy with Light Snow 32 0 32 0 100 100 NNE 7 11 29.94 1014 2 3 0.00 0.00
7:18 pm 19:18 Cloudy with Light Snow 32 0 30 -1 93 93 NNE 8 13 29.94 1014 2 3 0.00 0.00
7:39 pm 19:39 Cloudy with Light Snow 32 0 31 -0.6 96 96 NNE 7 11 29.94 1014 1 2 0.03 0.76
7:53 pm 19:53 Cloudy with Light Snow 32 0 31 -0.6 96 96 N 8 13 29.94 1014 1 1 0.04 1.02
8:53 pm 20:53 Mostly Cloudy with Light Snow 32 0 31 -0.6 96 96 N 8 13 29.96 1014 1 1 0.04 1.02
11:30 pm 23:30 Cloudy with Light Snow 30 -1 30 -1 100 100 N 12 19 30.06 1018 1 2 0.00 0.00
11:53 pm 23:53 Cloudy with Light Snow 31 -0.6 31 -0.6 100 100 N 10 17 30.01 1016 2 3 0.01 0.25

Powered by AerisWeather